Hourly Data Report for September 03, 2013

All times are specified in Local Standard Time (LST). Add 1 hour to adjust for Daylight Saving Time where and when it is observed.

PETAWAWA AWOS 2
ONTARIO

45°57'00.000" N
77°19'00.000" W
130.10 m
6106396
71625
YWA

Download Data

Hourly Data (September 2013)
Hourly Data Report for September 3, 2013
Temp Definition
°C
Dew Point Temp Definition
°C
Rel Hum Definition
%
Wind Dir Definition
10's deg

Wind Spd Definition
km/h
Visibility Definition
km
Stn Press Definition
kPa
Hmdx Definition


Wind Chill Definition


Weather Definition


TIME
00:00 14.2 13.3 94   0 15.0 98.95      
01:00 14.2 13.9 98   0 15.0 98.96      
02:00 14.8 14.5 98   0 15.0 98.94     Drizzle
03:00 15.1 14.5 96   0 15.0 98.96     Drizzle
04:00 15.1 14.1 94   0 15.0 98.98      
05:00 14.7 13.0 90   0 15.0 99.03      
06:00 14.3 13.0 92   0 15.0 99.06      
07:00 14.6 13.1 91   0 15.0 99.11      
08:00 14.7 12.8 88   0 15.0 99.14      
09:00 15.0 13.2 89   0 15.0 99.15     Rain
10:00 16.2 13.4 83   0 15.0 99.16      
11:00 15.6 14.2 91   0 15.0 99.18     Drizzle
12:00 16.1 14.3 89   0 15.0 99.19      
13:00 16.9 13.7 81   0 15.0 99.19      
14:00 17.2 13.9 81   0 15.0 99.19      
15:00 17.1 13.9 81   0 15.0 99.22      
16:00 17.0 14.2 84 LegendMM LegendMM 15.0 99.23      
17:00 17.8 13.2 74 28 9 15.0 99.25      
18:00 17.5 14.2 81   0 15.0 99.27      
19:00 15.3 13.8 91   0 15.0 99.29      
20:00 13.7 13.6 99   0 15.0 99.34      
21:00 12.2 12.2 100 23 4 9.7 99.37      
22:00 10.9 10.9 100   0 4.0 99.38      
23:00 9.9 9.9 100   0 15.0 99.37      

Notes on Data Quality.

Legend

  • E = Estimated
  • M = Missing
  • NA = Not Available
  • ‡ = Partner data that is not subject to review by the National Climate Archives
Date modified: